[[{"header":{"parameterUnit":"m.s-1","parameterCategory":1,"la1":30.2991,"la2":30.254,"lo1":-89.0895,"lo2":-89.0444,"dy":0.0017,"dx":0.0017,"nx":28,"ny":28,"refTime":"2024-10-17T09:00:00:Z","depth":0,"parameterNumber":2,"parameterNumberName":"U-component_of_WINDS"},"data":[0,0,0,0,0,0,0,0,0,0,0,0,0,0,0,0,0,0,0,0,0,0,0,0,0,0,0,0,0,0,0,0,0,0,0,0,0,0,0,0,0,0,0,0,0,0,0,0,0,0,0,0,0,0,0,0,0,0,-6.2911,-6.2912,0,-6.2993,-6.2994,-6.2995,-6.28,-6.2794,-6.2787,-6.2782,-6.2866,-6.2874,-6.2882,0,0,0,0,0,0,0,0,0,0,0,0,0,-6.2586,-6.2593,-6.2911,-6.2912,-6.2913,-6.2993,-6.2994,-6.2995,-6.2801,-6.2793,-6.2786,-6.2779,-6.2864,-6.2873,-6.2883,0,0,0,0,0,0,0,0,0,0,0,0,0,-6.2703,-6.2595,-6.2911,-6.2826,-6.2819,-6.2993,-6.2994,-6.2995,-6.2802,-6.2793,-6.2784,-6.2775,-6.2861,-6.2872,-6.2884,-6.3144,0,0,-6.2921,-6.2926,0,0,0,0,0,0,0,0,-6.2697,-6.2716,-6.2837,-6.2832,-6.2825,-6.2877,-6.291,-6.3045,-6.2805,-6.2809,-6.2781,-6.2771,-6.2877,-6.2887,-6.2923,-6.3148,-6.3152,-6.2922,-6.2929,-6.2934,-6.2938,0,0,0,0,0,0,0,-6.2689,-6.2711,-6.2943,-6.2839,-6.2832,-6.2783,-6.279,-6.2935,-6.2894,-6.2808,-6.2794,-6.2806,-6.2872,-6.2912,-6.2924,-6.3153,-6.2922,-6.2932,-6.294,-6.2944,-6.3591,-6.3601,0,0,0,0,0,0,-6.2692,-6.2705,-6.2941,-6.2946,-6.2737,-6.2797,-6.2804,-6.2869,-6.2892,-6.2887,-6.2814,-6.2797,-6.2896,-6.291,-6.2926,-6.3228,-6.2934,-6.2946,-6.2953,-6.3581,-6.3593,-6.3604,0,0,0,0,0,0,-6.2686,-6.2715,-6.2937,-6.2822,-6.2846,-6.2812,-6.2887,-6.2876,-6.2915,-6.2897,-6.2888,-6.2862,-6.2889,-6.2909,-6.309,-6.3229,-6.2951,-6.2962,-6.357,-6.3585,-6.3599,-6.3838,0,0,0,0,0,0,-6.2677,-6.2714,-6.2813,-6.2826,-6.2853,-6.3102,-6.2896,-6.2884,-6.2937,-6.2915,-6.294,-6.2935,-6.2884,-6.3073,-6.3102,-6.324,-6.2971,-6.3557,-6.3576,-6.3594,-6.3818,-6.386,-6.3896,0,0,0,0,0,-6.2666,-6.2878,-6.2819,-6.2848,-6.2976,-6.311,-6.3126,-6.3062,-6.2949,-6.3047,-6.3034,-6.2934,-6.321,-6.3094,-6.3125,-6.3268,-6.3548,-6.3571,-6.3593,-6.3801,-6.3852,-6.3895,0,0,0,0,0,0,-6.2883,-6.2878,-6.2812,-6.3035,-6.3074,-6.3077,-6.3199,-6.3119,-6.3191,-6.3168,-6.3086,-6.3093,-6.329,-6.3297,-6.3168,-6.3519,-6.3359,-6.3389,-6.3507,-6.3555,-6.3593,-6.3586,-6.2981,0,0,0,0,0,-6.2957,-6.3066,-6.3055,-6.3253,-6.3276,-6.3235,-6.3291,-6.3238,-6.3275,-6.3291,-6.3292,-6.3333,-6.3427,-6.3492,-6.3579,-6.3819,-6.382,-6.3933,-6.3971,-6.4003,-6.4029,-6.4153,-6.4202,-6.3678,-6.3678,-6.3677,0,0,-6.311,-6.3121,-6.3195,-6.3296,-6.3321,-6.3434,-6.325,-6.3379,-6.3462,-6.3311,-6.3481,-6.3484,-6.3523,-6.3734,-6.3827,-6.3746,-6.4175,-6.4032,-6.4058,-6.4066,-6.4181,-6.4231,-6.4275,-6.3693,-6.369,-6.3688,0,0,-6.3446,-6.3467,-6.3631,-6.3659,-6.3698,-6.3669,-6.3709,-6.3724,-6.3719,-6.3889,-6.3776,-6.3874,-6.4041,-6.4072,-6.411,-6.4457,-6.4367,-6.4488,-6.469,-6.4812,-6.4853,-6.4889,-6.501,-6.5055,-6.4515,-6.4515,-6.4516,0,-6.3632,-6.3799,-6.3727,-6.3862,-6.3909,-6.3777,-6.3942,-6.3972,-6.4039,-6.4073,-6.3982,-6.4186,-6.4204,-6.4418,-6.4503,-6.4539,-6.458,-6.4484,-6.4853,-6.4889,-6.4921,-6.5035,-6.5081,-6.4529,-6.4528,-6.4526,-6.4525,0,-6.4023,-6.4141,-6.4269,-6.4334,-6.4396,-6.4547,-6.4496,-6.4567,-6.4509,-6.4489,-6.4662,-6.4678,-6.4764,-6.4812,-6.4757,-6.5019,-6.4967,-6.4867,-6.4703,-6.4987,-6.5092,-6.5136,-6.455,-6.4545,-6.454,-6.4537,0,0,-6.4499,-6.4521,-6.4569,-6.4595,-6.4627,-6.4717,-6.486,-6.4943,-6.5004,-6.5055,-6.5171,-6.5314,-6.522,-6.5263,-6.5211,-6.5318,-6.5588,-6.5203,-6.5203,-6.5272,-6.5874,-6.5947,-6.5999,-6.5529,-6.5537,-6.5544,-6.5869,0,-6.4829,-6.5074,-6.5012,-6.5255,-6.5361,-6.5236,-6.5361,-6.5394,-6.5379,-6.5467,-6.545,-6.5552,-6.5422,-6.5446,-6.5547,-6.5534,-6.5707,-6.551,-6.5635,-6.564,-6.5626,-6.6055,-6.6134,-6.644,-6.591,-6.5917,-6.5922,0,-6.5247,-6.531,-6.5564,-6.5576,-6.5618,-6.5731,-6.5801,-6.5887,-6.5921,-6.5902,-6.5951,-6.5876,-6.6016,-6.5854,-6.6044,-6.5912,-6.5959,-6.596,-6.5971,-6.5977,-6.5797,-6.6071,-6.6537,-6.6582,-6.5987,-6.5982,-6.5978,0,-6.5564,-6.5714,-6.5883,-6.5911,-6.593,-6.6012,-6.6024,-6.6048,-6.6102,-6.6163,-6.6196,-6.6274,-6.6316,-6.6378,-6.6326,-6.6213,-6.6524,-6.6358,-6.6511,-6.6512,-6.658,-6.6576,-6.7057,-6.6616,-6.6616,-6.6615,-6.6614,0,-6.5937,-6.6096,-6.6025,-6.613,-6.6304,-6.6231,-6.6406,-6.6403,-6.6426,-6.6527,-6.6425,-6.6522,-6.6448,-6.6539,-6.6499,-6.6661,-6.6682,-6.667,-6.6657,-6.6677,-6.6679,-6.6705,-6.6681,-6.6627,-6.6624,-6.6622,-6.662,0,-6.6319,-6.6279,-6.6455,-6.6459,-6.6463,-6.6591,-6.6593,-6.6689,-6.6667,-6.6796,-6.6822,-6.6787,-6.6888,-6.6842,-6.6949,-6.6922,-6.7129,-6.709,-6.7118,-6.7106,-6.726,-6.7245,-6.7773,-6.7837,-6.7359,-6.7363,-6.7367,0,-6.6559,-6.6678,-6.6693,-6.6753,-6.6772,-6.687,-6.6923,-6.6856,-6.6915,-6.6962,-6.7052,-6.7144,-6.7213,-6.738,-6.7364,-6.7444,-6.7404,-6.7583,-6.7415,-6.7431,-6.7402,-6.7394,-6.7404,-6.7616,-6.7622,-6.7626,-6.763,0,-6.6987,-6.696,-6.704,-6.7114,-6.718,-6.7235,-6.7281,-6.7336,-6.727,-6.7342,-6.7443,-6.7497,-6.7604,-6.7696,-6.7766,-6.7777,-6.7693,-6.7683,-6.7722,-6.7743,-6.7752,-6.7746,-6.7206,-6.7671,-6.7667,-6.7664,-6.7662,-6.766,-6.7302,-6.7401,-6.7426,-6.7519,-6.7546,-6.7591,-6.768,-6.7668,-6.7751,-6.7832,-6.7788,-6.7906,-6.7934,-6.8019,-6.8042,-6.8132,-6.8061,-6.8119,-6.8133,-6.8147,-6.8166,-6.7741,-6.8145,-6.8144,-6.8143,-6.8142,-6.8141,0,-6.7721,-6.7731,-6.7817,-6.7883,-6.7956,-6.787,-6.7916,-6.7982,-6.8086,-6.812,-6.819,-6.8305,-6.8393,-6.8383,-6.8464,-6.8537,-6.8501,-6.8561,-6.8553,-6.8556,-6.8226,-6.8183,-6.8589,-6.8589,-6.8589,-6.8588,-6.8588,-6.8588,-6.7948,-6.8109,-6.8086,-6.8259,-6.8267,-6.8381,-6.8414,-6.8454,-6.848,-6.8613,-6.8685,-6.8678,-6.8694,-6.8774,-6.885,-6.8845,-6.8878,-6.8952,-6.8933,-6.8624,-6.858,-6.8537,-6.8496,-6.8961,-6.8961,-6.9254,-6.9256,-6.9258]},{"header":{"parameterUnit":"m.s-1","parameterCategory":1,"la1":30.2991,"la2":30.254,"lo1":-89.0895,"lo2":-89.0444,"dy":0.0017,"dx":0.0017,"nx":28,"ny":28,"refTime":"2024-10-17T09:00:00:Z","depth":0,"parameterNumber":3,"parameterNumberName":"V-component_of_WINDS"},"data":[0,0,0,0,0,0,0,0,0,0,0,0,0,0,0,0,0,0,0,0,0,0,0,0,0,0,0,0,0,0,0,0,0,0,0,0,0,0,0,0,0,0,0,0,0,0,0,0,0,0,0,0,0,0,0,0,0,0,-1.7811,-1.7811,0,-1.7808,-1.7808,-1.7808,-1.7841,-1.7842,-1.7843,-1.7844,-1.7839,-1.7838,-1.7837,0,0,0,0,0,0,0,0,0,0,0,0,0,-1.7844,-1.7843,-1.7812,-1.7811,-1.7811,-1.7808,-1.7808,-1.7808,-1.7841,-1.7842,-1.7843,-1.7844,-1.7839,-1.7838,-1.7837,0,0,0,0,0,0,0,0,0,0,0,0,0,-1.7834,-1.7843,-1.7812,-1.7827,-1.7829,-1.7808,-1.7808,-1.7808,-1.7841,-1.7842,-1.7843,-1.7845,-1.784,-1.7838,-1.7837,-1.78,0,0,-1.7832,-1.7831,0,0,0,0,0,0,0,0,-1.7834,-1.7833,-1.7825,-1.7826,-1.7828,-1.7826,-1.7818,-1.7805,-1.784,-1.7836,-1.7844,-1.7845,-1.7833,-1.7833,-1.7829,-1.78,-1.78,-1.7832,-1.7831,-1.783,-1.783,0,0,0,0,0,0,0,-1.7835,-1.7833,-1.781,-1.7825,-1.7827,-1.7834,-1.7834,-1.7815,-1.7827,-1.7837,-1.7839,-1.7838,-1.7834,-1.783,-1.7829,-1.78,-1.7832,-1.7831,-1.783,-1.7829,-1.7737,-1.7735,0,0,0,0,0,0,-1.7834,-1.7833,-1.781,-1.781,-1.7835,-1.7832,-1.7832,-1.7825,-1.7827,-1.7829,-1.7837,-1.784,-1.7832,-1.7831,-1.7829,-1.7784,-1.783,-1.7829,-1.7828,-1.7738,-1.7736,-1.7735,0,0,0,0,0,0,-1.7834,-1.7832,-1.781,-1.7822,-1.782,-1.783,-1.7822,-1.7825,-1.782,-1.7828,-1.783,-1.7831,-1.7833,-1.7831,-1.7806,-1.7784,-1.7828,-1.7827,-1.774,-1.7738,-1.7735,-1.7694,0,0,0,0,0,0,-1.7835,-1.7832,-1.7818,-1.7822,-1.7819,-1.7788,-1.7821,-1.7824,-1.7818,-1.7821,-1.7822,-1.7824,-1.7834,-1.7808,-1.7805,-1.7783,-1.7826,-1.7742,-1.7739,-1.7736,-1.7697,-1.769,-1.7685,0,0,0,0,0,-1.7836,-1.7807,-1.7818,-1.7815,-1.7803,-1.7787,-1.7786,-1.7798,-1.7816,-1.7802,-1.7807,-1.7824,-1.7787,-1.7805,-1.7802,-1.7779,-1.7744,-1.774,-1.7736,-1.77,-1.7692,-1.7685,0,0,0,0,0,0,-1.7801,-1.7808,-1.782,-1.7791,-1.7788,-1.7793,-1.7776,-1.779,-1.7782,-1.7785,-1.7801,-1.7801,-1.7773,-1.7774,-1.7794,-1.7742,-1.7768,-1.7764,-1.7742,-1.7734,-1.7728,-1.7727,-1.7825,0,0,0,0,0,-1.779,-1.7777,-1.7784,-1.7758,-1.7756,-1.7766,-1.7759,-1.7769,-1.7767,-1.7766,-1.7768,-1.7765,-1.7752,-1.7744,-1.7733,-1.7698,-1.7697,-1.7681,-1.7674,-1.7669,-1.7664,-1.7643,-1.7634,-1.7723,-1.7723,-1.7723,0,0,-1.7767,-1.7769,-1.776,-1.7751,-1.775,-1.7734,-1.7765,-1.7748,-1.7736,-1.7763,-1.7739,-1.7741,-1.7738,-1.7707,-1.7694,-1.7707,-1.764,-1.7664,-1.766,-1.7658,-1.7638,-1.763,-1.7622,-1.7721,-1.7721,-1.7721,0,0,-1.7717,-1.7718,-1.7695,-1.7693,-1.7691,-1.7698,-1.7692,-1.7694,-1.7696,-1.7673,-1.7692,-1.7678,-1.7657,-1.7653,-1.7648,-1.7594,-1.7608,-1.759,-1.7556,-1.7535,-1.7528,-1.7522,-1.7499,-1.7491,-1.7586,-1.7586,-1.7586,0,-1.7688,-1.7666,-1.7682,-1.7663,-1.7657,-1.7681,-1.7656,-1.7654,-1.7648,-1.7643,-1.7658,-1.763,-1.763,-1.7597,-1.7584,-1.758,-1.7572,-1.7589,-1.7528,-1.7522,-1.7516,-1.7495,-1.7487,-1.7583,-1.7583,-1.7584,-1.7584,0,-1.7629,-1.7614,-1.7596,-1.7589,-1.7581,-1.756,-1.757,-1.7561,-1.7571,-1.7576,-1.755,-1.755,-1.7538,-1.7532,-1.7543,-1.75,-1.7508,-1.7525,-1.7552,-1.7505,-1.7485,-1.7477,-1.758,-1.7581,-1.7581,-1.7582,0,0,-1.7556,-1.7557,-1.755,-1.7546,-1.7545,-1.7532,-1.7511,-1.75,-1.749,-1.7485,-1.7466,-1.7447,-1.7462,-1.7456,-1.7467,-1.7448,-1.7402,-1.7468,-1.7468,-1.7453,-1.7351,-1.7336,-1.7326,-1.7412,-1.7411,-1.741,-1.735,0,-1.7505,-1.7469,-1.7481,-1.7444,-1.7428,-1.745,-1.7431,-1.7427,-1.7431,-1.7417,-1.7421,-1.7405,-1.7429,-1.7425,-1.7408,-1.7411,-1.7381,-1.7416,-1.7392,-1.7391,-1.7389,-1.7316,-1.7301,-1.7245,-1.7343,-1.7342,-1.7341,0,-1.744,-1.7431,-1.7392,-1.7391,-1.7385,-1.7368,-1.7357,-1.7344,-1.734,-1.7343,-1.7336,-1.7349,-1.7327,-1.7355,-1.7322,-1.7345,-1.7337,-1.7336,-1.7334,-1.7331,-1.7361,-1.7308,-1.7228,-1.7218,-1.7329,-1.733,-1.7331,0,-1.7386,-1.7366,-1.7339,-1.7335,-1.7334,-1.7321,-1.732,-1.7317,-1.7308,-1.7299,-1.7293,-1.7281,-1.7273,-1.7263,-1.7272,-1.7292,-1.7237,-1.7266,-1.7237,-1.7236,-1.7222,-1.7223,-1.7137,-1.7221,-1.7221,-1.7222,-1.7222,0,-1.7326,-1.73,-1.7314,-1.7297,-1.7269,-1.7283,-1.7254,-1.7255,-1.7252,-1.7234,-1.7253,-1.7236,-1.725,-1.7234,-1.7241,-1.7211,-1.7208,-1.7209,-1.721,-1.7206,-1.7205,-1.7198,-1.7201,-1.7219,-1.722,-1.722,-1.7221,0,-1.7261,-1.7269,-1.7241,-1.7242,-1.7242,-1.722,-1.722,-1.7204,-1.7208,-1.7186,-1.7181,-1.7188,-1.717,-1.7178,-1.7159,-1.7164,-1.7124,-1.7133,-1.7125,-1.7126,-1.7095,-1.7097,-1.7,-1.6986,-1.7082,-1.7081,-1.7081,0,-1.722,-1.7201,-1.7199,-1.7189,-1.7186,-1.717,-1.7161,-1.7174,-1.7163,-1.7155,-1.7139,-1.7123,-1.711,-1.7079,-1.7081,-1.7066,-1.7072,-1.7039,-1.707,-1.7065,-1.7068,-1.7068,-1.7065,-1.7032,-1.7031,-1.703,-1.703,0,-1.7146,-1.7151,-1.7138,-1.7125,-1.7113,-1.7104,-1.7096,-1.7087,-1.7099,-1.7086,-1.7067,-1.7057,-1.7037,-1.7019,-1.7005,-1.7003,-1.7017,-1.702,-1.7012,-1.7005,-1.7001,-1.6999,-1.7105,-1.7022,-1.7023,-1.7023,-1.7024,-1.7024,-1.709,-1.7073,-1.7068,-1.7052,-1.7047,-1.7039,-1.7023,-1.7025,-1.701,-1.6994,-1.7003,-1.698,-1.6974,-1.6957,-1.6952,-1.6933,-1.6946,-1.6935,-1.6932,-1.6928,-1.6922,-1.7006,-1.6931,-1.6932,-1.6932,-1.6932,-1.6932,0,-1.7014,-1.7012,-1.6997,-1.6985,-1.6972,-1.6988,-1.6979,-1.6966,-1.6946,-1.6939,-1.6926,-1.6903,-1.6885,-1.6886,-1.6869,-1.6854,-1.6859,-1.6848,-1.6848,-1.6847,-1.6914,-1.6921,-1.6844,-1.6844,-1.6844,-1.6844,-1.6844,-1.6844,-1.6973,-1.6944,-1.6948,-1.6915,-1.6913,-1.6891,-1.6884,-1.6876,-1.687,-1.6844,-1.6829,-1.683,-1.6825,-1.6808,-1.6792,-1.6792,-1.6784,-1.677,-1.6772,-1.6834,-1.6843,-1.6851,-1.6858,-1.6768,-1.6768,-1.6706,-1.6706,-1.6705]}]]